Flag for Germany Weather past 2 weeks in Emsdetten, North Rhine-Westphalia, Germany

57 °F

Passing clouds.

Feels Like: 55 °F
Forecast: 54 / 60 °F
Wind: 9 mph from Southwest

Location: Muenster / Osnabrueck

Current Time: Oct 8, 2015 at 12:15:41 AM

Latest Report: Oct 7, 2015 at 11:20 PM

Visibility: N/A

Pressure: 29.98 "Hg

Humidity: 88%

Dew point: 54 °F

Location of EmsdettenLocation

Historic Weather in Emsdetten — Graph


Emsdetten temperature yesterday

Maximum temperature yesterday: 64 °F (at 2:50 PM)
Minimum temperature yesterday: 55 °F (at 7:20 AM)
Average temperature yesterday: 60 °F

Past Weeks' High & Low Weather Summary

High66 °F (Oct 3, 4:50 PM)100% (Sep 23, 7:50 AM)30.66 "Hg (Sep 23, 7:50 AM)
Low34 °F (Oct 2, 7:20 AM)39% (Oct 2, 2:20 PM)29.53 "Hg (Sep 22, 10:20 PM)
Average54 °F83%30.17 "Hg
* Reported Sep 22 10:20 PM — Oct 7 10:20 PM, Emsdetten, Weather by CustomWeather, © 2015

Note: Actual official high and low records may vary slightly from our data, if they occured in-between our weather recording intervals... More about our weather records


Emsdetten weather history for previous 24 hours

Time TempWeatherWind HumidityBarometerVisibility
10:20 PM
Wed, Oct 7
57 °FPassing clouds.9 mph88%29.95 "HgN/A
9:50 PM57 °FPassing clouds.8 mph94%29.95 "HgN/A
9:20 PM59 °FPartly cloudy.13 mph88%29.95 "HgN/A
8:50 PM59 °FPassing clouds.5 mph88%29.95 "HgN/A
8:20 PM57 °FPassing clouds.3 mph94%29.92 "HgN/A
7:50 PM59 °FBroken clouds.5 mph88%29.92 "HgN/A
7:20 PM59 °FSprinkles. Partly sunny.12 mph88%29.92 "HgN/A
6:50 PM61 °FPartly sunny.5 mph83%29.89 "HgN/A
6:20 PM61 °FPartly sunny.8 mph83%29.89 "HgN/A
5:50 PM63 °FPartly sunny.9 mph77%29.89 "HgN/A
5:20 PM63 °FPartly sunny.9 mph77%29.86 "HgN/A
4:50 PM63 °FPartly sunny.10 mph77%29.86 "HgN/A
4:20 PM63 °FPartly sunny.10 mph73%29.86 "HgN/A
3:50 PM64 °FPartly sunny.8 mph73%29.86 "HgN/A
3:20 PM64 °FPartly sunny.9 mph73%29.86 "HgN/A
2:50 PM64 °FBroken clouds.7 mph78%29.86 "HgN/A
2:20 PM63 °FBroken clouds.7 mph83%29.83 "HgN/A
1:50 PM61 °FBroken clouds.6 mph88%29.83 "HgN/A
1:20 PM61 °FBroken clouds.8 mph88%29.83 "HgN/A
12:50 PM63 °FBroken clouds.8 mph77%29.83 "HgN/A
12:20 PM63 °FBroken clouds.7 mph83%29.80 "HgN/A
11:50 AM63 °FBroken clouds.8 mph83%29.80 "HgN/A
11:20 AM63 °FBroken clouds.7 mph83%29.80 "HgN/A
10:50 AM63 °FBroken clouds.6 mph83%29.80 "HgN/A
10:20 AM63 °FBroken clouds.5 mph88%29.80 "HgN/A
9:50 AM61 °FBroken clouds.6 mph94%29.77 "HgN/A
9:20 AM59 °FScattered clouds.5 mph94%29.77 "HgN/A
8:50 AM57 °FFog.3 mph94%29.77 "HgN/A
8:20 AM55 °FFog.3 mph100%29.74 "Hg6 mi
7:50 AM57 °FFog.3 mph94%29.74 "Hg6 mi
7:20 AM55 °FFog.3 mph100%29.74 "Hg6 mi
6:50 AM57 °FPassing clouds.5 mph94%29.74 "HgN/A
6:20 AM57 °FPassing clouds.3 mph100%29.71 "HgN/A
5:50 AM59 °FPassing clouds.3 mph94%29.71 "HgN/A
5:20 AM57 °FPassing clouds.3 mph100%29.71 "HgN/A
4:50 AM57 °FPartly cloudy.3 mph100%29.71 "HgN/A
4:20 AM57 °FPassing clouds.5 mph100%29.71 "HgN/A
3:50 AM57 °FPassing clouds.3 mph100%29.71 "Hg6 mi
3:20 AM57 °FClear.3 mph100%29.68 "Hg4 mi
2:50 AM57 °FClear.3 mph100%29.68 "Hg4 mi
2:20 AM59 °FClear.5 mph94%29.68 "Hg4 mi
1:50 AM59 °FClear.3 mph94%29.68 "Hg4 mi
1:20 AM59 °FClear.2 mph100%29.68 "Hg4 mi
12:50 AM59 °FClear.3 mph100%29.68 "Hg5 mi
12:20 AM59 °FClear.3 mph100%29.68 "Hg5 mi
Weather by CustomWeather, © 2015

See weather overviewHow to use our weather pages